Location: Darr Branch
(32.1532°N, 97.3853°W)
Time: 10:02:20
(UTC+00:00)

Cosmos 968 Rocket - Pass Details

Date: 18 November 2025
Orbit: 735 x 766 km, 74.0° (Epoch: 07 December)

Event Time Altitude Azimuth Distance (km) Brightness Sun altitude
Exits shadow 12:02:43 - 339° (NNW) 3,182 6.4 -12.6°
Reaches altitude 10° 12:04:58 10° 337° (NNW) 2,307 5.6 -12.2°
Maximum altitude 12:10:09 66° 257° (WSW) 836 3.5 -11.1°
Drops below altitude 10° 12:15:18 10° 175° (S) 2,289 6.3 -10.1°
Sets 12:17:40 0° 172° (S) 3,208 7.1 -9.6°
